This is the latest recevied weather packets stored in our database for station/object NT9G. If no packets are shown the sender has not sent any weather packets the latest 10 day(s).
| Time | Temp. | Humidity | Pressure | Rain* | Wind** | Luminosity | Snow |
|---|---|---|---|---|---|---|---|
| 1777671016 | 13.33° C | 42% | 1017.9 hPa | 0.25 mm | - | - | - |
| 1777670716 | 13.33° C | 39% | 1017.9 hPa | 0.25 mm | - | - | - |
| 1777670415 | 13.33° C | 40% | 1017.9 hPa | 0.25 mm | - | - | - |
| 1777670115 | 13.33° C | 40% | 1017.9 hPa | 0.25 mm | - | - | - |
| 1777669815 | 13.89° C | 39% | 1017.9 hPa | 0.25 mm | - | - | - |
| 1777669514 | 13.89° C | 43% | 1018 hPa | 0.25 mm | - | - | - |
| 1777669214 | 13.33° C | 43% | 1018 hPa | 0.25 mm | - | - | - |
| 1777668914 | 13.33° C | 40% | 1018 hPa | 0.25 mm | - | - | - |
| 1777668614 | 12.78° C | 42% | 1018.1 hPa | 0.25 mm | - | - | - |
| 1777668313 | 12.78° C | 41% | 1018.2 hPa | 0.25 mm | - | - | - |
| 1777668013 | 12.78° C | 45% | 1018.3 hPa | 0.25 mm | - | - | - |
| 1777667713 | 12.22° C | 46% | 1018.4 hPa | 0.25 mm | - | - | - |
| 1777667412 | 12.22° C | 44% | 1018.4 hPa | 0.25 mm | - | - | - |
| 1777667112 | 12.22° C | 44% | 1018.5 hPa | 0.25 mm | - | - | - |
| 1777666812 | 12.22° C | 42% | 1018.5 hPa | 0.25 mm | - | - | - |
| 1777666512 | 12.22° C | 41% | 1018.5 hPa | 0.25 mm | - | - | - |
| 1777666211 | 12.78° C | 41% | 1018.6 hPa | 0.25 mm | - | - | - |
| 1777665911 | 12.78° C | 41% | 1018.6 hPa | 0.25 mm | - | - | - |
| 1777665611 | 12.78° C | 43% | 1018.6 hPa | 0.25 mm | - | - | - |
| 1777665310 | 12.78° C | 41% | 1018.6 hPa | 0.25 mm | - | - | - |
| 1777665010 | 12.78° C | 39% | 1018.5 hPa | 0.25 mm | - | - | - |
| 1777664710 | 12.78° C | 41% | 1018.5 hPa | 0.25 mm | - | - | - |
| 1777664410 | 12.78° C | 42% | 1018.6 hPa | 0.25 mm | - | - | - |
| 1777664109 | 12.22° C | 40% | 1018.6 hPa | 0.25 mm | - | - | - |
| 1777663809 | 12.78° C | 42% | 1018.6 hPa | 0.25 mm | - | - | - |
* Rain since midnight (hover to see other rain measurements)
** Current wind speed in m/s (hover to see current wind gust speed)